Find Starlink 36886

NORAD ID: 68175 Int'l Des: 2026-050 Owner: SPXS Country: US Constellation: starlink operational
LEOCIRCULAR

Live Position

Loading 3D Globe...

About Starlink 36886

Description loading...

Upcoming Passes

Passes for default location (London). Set your location on the main map for personalized predictions.

Altitude History

Loading altitude history...

Two-Line Element Set

1 68175U 26050J 26121.13787889 .00094307 00000-0 21476-2 0 9998
2 68175 53.1601 23.8127 0000960 93.6902 266.4214 15.42193564 8702
Epoch: May 1, 2026 • Age: 11 hours

Current Status

Altitude 440.4 km
Velocity 7.65 km/s
Sub-Earth Point -0.30°S, 51°W
Launch Date Mar 14, 2026
Age 0.1 years
Type internet

Technical Details

Classification Payload
Mass 575.00 kg
Dry Mass 530.00 kg
Total Mass 575.00 kg
Length 0.30 m
Diameter 4.10 m
Span 29.00 m
Shape Box + pan
Manufacturer SPXS
Bus Type Starlink V2MO
Phase Status In Orbit
Owner/State SPXS/US

Most Searched